Regional Weather Roundup
Issued by NWS

Home | Current Version | Previous Version | Text Only | Print | Product List | Glossary On
Versions: 1 2 3 4 5 6 7 8 9 10 11 12 13 14 15 16 17 18 19 20 21 22 23 24 25 26 27 28 29 30 31 32 33 34 35 36 37 38 39 40 41 42 43 44 45 46 47 48 49 50
000
ASUS43 KOAX 241310
RWRNE

WEATHER ROUNDUP FOR NEBRASKA
NATIONAL WEATHER SERVICE OMAHA NE
700 AM CST TUE JAN 24 2017

NOTES: SATELLITE DATA IS BEING USED TO AUGMENT CLOUD COVER ABOVE
       12000 FEET.
       "FAIR" INDICATES FEW OR NO CLOUDS BELOW 12,000 FEET WITH NO
       SIGNIFICANT WEATHER AND/OR OBSTRUCTIONS TO VISIBILITY.

  * THESE STATIONS DO NOT REPORT WEATHER SUCH AS RAIN...SNOW OR FOG.

NEZ001>004-019>022-054>056-241400-
NEBRASKA PANHANDLE

CITY           SKY/WX    TMP DP  RH WIND       PRES   REMARKS
SCOTTSBLUFF    LGT SNOW  22  19  89 N12       29.61S VSB 3/4 WCI  10
ALLIANCE       FOG       22  20  92 N18       29.58R VSB 1/4 WCI   7
CHADRON        LGT SNOW  23  20  88 N14       29.68R VSB 1   WCI  11
KIMBALL        CLOUDY    23  23 100 N17       29.53S WCI   9
SIDNEY         CLOUDY    25  23  92 N20       29.53R WCI  11
$$

NEZ057>060-069>072-079>082-241400-
SOUTHWEST NEBRASKA

CITY           SKY/WX    TMP DP  RH WIND       PRES   REMARKS
NORTH PLATTE   CLOUDY    31  30  96 NE12      29.53F FOG     WCI  22
IMPERIAL       FOG       30  29  96 NE15      29.49F VSB 1/2 WCI  19
LEXINGTON      CLOUDY    32  31  94 E15       29.54F FOG     WCI  22
MCCOOK         CLOUDY    32  32 100 NE8       29.50R FOG     WCI  25
OGALLALA       CLOUDY    32  31  97 NE10      29.54S FOG     WCI  23
$$

NEZ005>010-023>029-035>040-094-241400-
NORTH CENTRAL NEBRASKA

CITY           SKY/WX    TMP DP  RH WIND       PRES   REMARKS
VALENTINE      LGT SNOW  30  27  88 NE13      29.64F FOG     WCI  20
AINSWORTH      SNOW      30  30 100 NE10      29.63F VSB 1/2 WCI  21
BROKEN BOW     CLOUDY    31  31 100 E8        29.60R FOG     WCI  23
O`NEILL        CLOUDY    31  31 100 NE12      29.67F FOG     WCI  22
ORD            CLOUDY    30  28  92 E8        29.61F FOG     WCI  22
THEDFORD       FOG       30  30  99 NE7       29.59S VSB 1/2 WCI  23
$$

NEZ041-046>049-061>064-073>077-083>087-241400-
SOUTH CENTRAL NEBRASKA

CITY           SKY/WX    TMP DP  RH WIND       PRES   REMARKS
GRAND ISLAND   CLOUDY    30  30 100 E18       29.59F FOG     WCI  18
AURORA         CLOUDY    31  31 100 E17G25    29.60S FOG     WCI  19
HASTINGS       CLOUDY    32  29  88 E17G24    29.56F FOG     WCI  21
HEBRON         CLOUDY    32  30  93 E14G21    29.58S WCI  22
HOLDREGE       CLOUDY    32  31  95 E13G18    29.52S FOG     WCI  22
KEARNEY *      CLOUDY    32  28  86 E16       29.56S WCI  21
YORK           PTCLDY    30  30 100 E23       29.62F FOG     WCI  17
$$

NEZ011>018-030>034-042>045-241400-
NORTHEAST NEBRASKA

CITY           SKY/WX    TMP DP  RH WIND       PRES   REMARKS
NORFOLK        CLOUDY    29  27  92 E12       29.70F WCI  19
ALBION         CLOUDY    32  30  92 E15       29.65F FOG     WCI  22
BLAIR          CLOUDY    30  30  98 E16       29.73F FOG     WCI  19
FREMONT        CLOUDY    30  30 100 E9        29.74S FOG     WCI  22
TEKAMAH        CLOUDY    31  28  89 E9        29.77S WCI  23
WAYNE          CLOUDY    30  29  96 E9        29.73F WCI  22
$$

NEZ050>053-065>068-078-088>093-241400-
SOUTHEAST NEBRASKA

CITY           SKY/WX    TMP DP  RH WIND       PRES   REMARKS
LINCOLN        CLOUDY    31  30  96 E14       29.71F FOG     WCI  21
OMAHA EPPLEY   CLOUDY    31  26  82 E6        29.77S WCI  25
BEATRICE       CLOUDY    32  31  96 E16       29.65F FOG     WCI  21
FALLS CITY     CLOUDY    31  29  92 E15       29.72S FOG     WCI  20
NEBRASKA CITY  CLOUDY    30  30 100 E15       29.73R FOG     WCI  19
PLATTSMOUTH    CLOUDY    30  28  92 E8        29.74R FOG     WCI  23
$$

NEZ044-045-051>053-067-241400-
OMAHA AREA

CITY           SKY/WX    TMP DP  RH WIND       PRES   REMARKS
OMAHA EPPLEY   CLOUDY    31  26  82 E6        29.77S WCI  25
BLAIR          CLOUDY    30  30  98 E16       29.73F FOG     WCI  19
FREMONT        CLOUDY    30  30 100 E9        29.74S FOG     WCI  22
MILLARD        CLOUDY    32  31  94 E7        29.75S FOG     WCI  26
OFFUTT AFB     CLOUDY    30  30 100 E10       29.75R WCI  21
PLATTSMOUTH    CLOUDY    30  28  92 E8        29.74R FOG     WCI  23
WAHOO          CLOUDY    31  30  96 E12       29.73S FOG     WCI  21
$$



USA.gov is the U.S. government's official web portal to all federal, state and local government web resources and services.